Regional Weather Roundup
Issued by NWS

Home | Current Version | Previous Version | Text Only | Print | Product List | Glossary On
Versions: 1 2 3 4 5 6 7 8 9 10 11 12 13 14 15 16 17 18 19 20 21 22 23 24 25 26 27 28 29 30 31 32 33 34 35 36 37 38 39 40 41 42 43 44 45 46 47 48 49 50
000
ASUS43 KFSD 051310
RWRSD

WEATHER ROUNDUP FOR SOUTH DAKOTA
NATIONAL WEATHER SERVICE SIOUX FALLS SD
800 AM CDT SUN JUL 05 2015

NOTE: "FAIR" INDICATES FEW OR NO CLOUDS BELOW 12,000 FEET WITH NO
SIGNIFICANT WEATHER AND/OR OBSTRUCTIONS TO VISIBILITY.


SDZ001>005-009-010-012>017-051400-
NORTHWEST AND NORTH CENTRAL SOUTH DAKOTA

CITY           SKY/WX    TMP DP  RH WIND       PRES   REMARKS
BUFFALO          N/A     69  58  67 N22G32    29.75R
FAITH            N/A     69  63  81 S12       29.72F
MOBRIDGE       SUNNY     72  69  90 S8        29.70S
$$

SDZ012>016-024>037-041>051-057-063-072>074-051400-
SOUTHWEST AND SOUTH CENTRAL SOUTH DAKOTA

CITY           SKY/WX    TMP DP  RH WIND       PRES   REMARKS
RAPID CTY ARPT SUNNY     69  65  86 SE5       29.76F
PIERRE           N/A     71  66  84 E8        29.72S
CUSTER         SUNNY     65  57  75 NW3       29.95F
ELLSWORTH AFB  SUNNY     70  64  81 SW5       29.75F
PHILIP         SUNNY     71  63  75 SW5       29.73S
PINE RIDGE     SUNNY     72  63  73 SW3       29.80R
SPEARFISH      FAIR      77  55  47 CALM      29.79S
WINNER         FAIR      72  64  76 SE10      29.77S
$$

SDZ004>011-016>023-039-040-051400-
NORTHEAST SOUTH DAKOTA

CITY           SKY/WX    TMP DP  RH WIND       PRES   REMARKS
ABERDEEN       SUNNY     70  64  83 MISG      29.75R
WATERTOWN      MOSUNNY   71  65  81 S17G24    29.83R
BROOKINGS      PTSUNNY   66  63  88 S15G21    29.87F
SISSETON         N/A     72  66  81 S8        29.79R
$$

SDZ017-020-022-023-036>040-048>070-051400-
SOUTHEAST SOUTH DAKOTA

CITY           SKY/WX    TMP DP  RH WIND       PRES   REMARKS
SIOUX FALLS    LGT RAIN  67  65  93 E8        29.92R FOG
HURON          SUNNY     72  65  78 S16G28    29.79S
CHAMBERLAIN    MOSUNNY   69  66  88 SE15      29.78S
MITCHELL       SUNNY     72  65  78 SE14G23   29.84R
YANKTON        MOSUNNY   70  64  83 S17       29.86S
$$

ABBREVIATIONS USED IN REMARKS
   TC - TEMPERATURE IN CELSIUS
  WCI - WIND CHILL INDEX
   HX - HEAT INDEX
  VSB - VISIBILITY



USA.gov is the U.S. government's official web portal to all federal, state and local government web resources and services.